SCP
0 0 0 0 0 0 0 0 0 0 0 0 0 0 0 0 0 0 0 0 0 0 0 0 0 0 0 0 0 0 0 0 0 0 0 0 0 0 0 0 0 0 0 0 0 0 0 0 0 0 0 0 0 0
0 0 0 0 0 0 0 0 0 0 0 0 0 0 0 0 0 0 0 0 0 0 0 0 0 0 0 0 0 0 0 0 0 0 0 0 0 0 0 0 0 0 0 0 0 0 0 0 0 0 0 0 0 0
0 0 0 0 0 0 -0 -0 -0 -0 0 -0 0 0 0 0 0 0 0 0 0 0 0 -0 -0 0 0 0 0 0 0 0 0 0 0 0 0 0 0 0 0 0 0 0 0 0 0 0 0 0 0 0 0 0
-0 0 0 0 0 0 0 0 0 0 0 -0 -0 -0 0 0 0 0 0 0 0 0 0 -0 0 0 0 0 0 -0 0 0 0 0 0 0 0 0 0 0 0 0 0 0 0 0 0 0 0 0 0 0 0 0
-0 -0 -0 -0 -0 -0 0 0 0 0 0 0 0 0 -0 -0 -0 0 0 0 0 0 0 -0 -0 -0 0 0 0 0 0 0 0 0 0 0 0 0 0 0 0 0 0 0 0 0 0 0 0 0 0 0 0 0
-0 -0 0 0 0 -0 0 0 0 0 0 0 0 -0 -0 -0 -0 0 0 -0 -0 0 -0 0 0 0 0 0 0 0 0 0 0 0 0 0 0 0 0 0 0 0 0 0 0 0 0 0 0 0 0 0 0 0
0 0 -0 -0 -0 -0 0 -0 0 0 0 0 0 -0 -0 -0 0 0 -0 -0 -0 0 0 0 0 0 0 0 0 0 0 0 0 0 0 0 0 0 0 0 0 0 0 0 0 0 0 0 0 0 0 0 0 0
-0 -0 -0 -0 -0 0 -0 -0 0 0 0 0 0 -0 -0 -0 0 0 0 0 0 0 0 0 0 0 0 0 0 0 0 0 0 0 0 0 0 0 0 0 0 0 0 0 0 0 0 0 0 0 0 0 0 0
0 0 -0 0 0 0 0 0 0 0 0 -0 -0 0 0 0 0 0 0 0 0 0 0 0 0 0 0 0 0 0 0 0 0 0 0 0 0 0 0 0 0 0 0 0 0 0 0 0 0 0 0 0 0 0
0 0 0 0 0 0 0 0 -0 0 0 0 0 0 0 0 0 0 0 0 0 0 0 0 0 0 0 0 0 0 0 0 0 0 0 0 0 0 0 0 0 0 0 0 0 0 0 0 0 0 0 0 0 0
0 0 0 0 0 0 0 0 0 0 0 0 0 0 0 0 0 0 0 0 0 0 0 0 0 0 0 0 0 0 0 0 0 0 0 0 0 0 0 0 0 0 0 0 0 0 0 0 0 0 0 0 0 0
0 0 0 0 0 0 0 0 0 0 0 0 0 0 0 0 0 0 0 0 0 0 0 0 0 0 0 0 0 0 0 0 0 0 0 0 0 0 0 0 0 0 0 0 0 0 0 0 0 0 0 0 0 0
0 0 0 0 0 0 0 0 0 0 0 0 0 0 0 0 0 0 0 0 0 0 0 0 0 0 0 0 0 0 0 0 0 0 0 0 0 0 0 0 0 0 0 0 0 0 0 0 0 0 0 0 0 0
0 0 0 0 0 0 0 0 0 0 0 0 0 0 0 0 0 0 0 0 0 0 0 0 0 0 0 0 0 0 0 0 0 0 0 0 0 0 0 0 0 0 0 0 0 0 0 0 0 0 0 0 0 0
-0 -0 0 0 0 0 0 0 0 0 0 0 0 0 0 0 0 0 0 0 0 0 0 0 0 0 0 0 0 0 0 0 -0 0 0 0 0 -0 0 0 0 0 0 0 0 0 0 0 0 0 0 0 0 0
-0 -0 0 0 0 0 0 0 0 0 0 0 0 0 0 0 0 0 0 0 0 0 0 0 0 0 0 0 0 0 0 0 0 0 0 0 0 0 0 0 0 0 0 0 0 0 0 -0 -0 0 0 0 0 0
-0 0 0 0 0 0 0 0 0 0 0 0 0 0 0 0 0 0 0 0 0 0 0 0 0 0 0 0 0 0 0 0 0 0 0 0 0 0 0 0 0 0 0 -0 -0 0 -0 -0 -0 -0 0 0 0 0
0 0 0 0 0 0 0 0 0 0 0 0 0 0 0 0 0 0 0 0 0 0 0 0 0 0 0 0 0 0 0 0 0 0 0 0 0 0 0 0 0 0 0 -0 -0 -0 -0 -0 -0 -0 -0 0 0 0
0 0 0 0 0 0 0 0 0 0 0 0 0 0 0 0 0 0 0 0 0 0 0 0 0 0 0 0 0 0 0 0 0 0 0 0 0 0 0 0 0 0 -0 -0 -0 0 -0 -0 0 0 0 0 0 0
0 0 0 0 0 0 0 0 0 0 0 0 0 0 0 0 0 0 0 0 0 0 0 0 0 0 0 0 0 0 0 0 0 0 0 0 0 0 0 0 0 -0 0 0 0 0 0 0 0 0 0 0 0 0
0 0 0 0 0 0 0 0 0 0 0 0 0 0 0 0 0 0 0 0 0 0 0 0 0 0 0 0 0 0 0 0 0 0 0 0 0 0 0 0 0 0 0 0 0 0 0 0 0 0 0 0 0 0
0 0 0 0 0 0 0 0 0 0 0 0 0 0 0 0 0 0 0 0 0 0 0 0 0 0 0 0 0 0 0 0 0 0 0 0 0 0 0 0 0 0 0 0 0 0 0 0 0 0 0 0 0 0
0 0 0 0 0 0 0 0 0 0 0 0 0 0 0 0 0 0 0 0 0 0 0 0 0 0 0 0 -0 0 0 0 0 0 0 0 0 0 0 0 0 0 0 0 0 0 0 0 0 0 0 0 0 0
-0 0 0 0 0 0 0 0 0 0 0 0 0 0 0 0 0 0 0 0 0 0 0 0 0 0 0 0 0 0 0 0 0 0 0 0 0 0 0 0 0 0 0 0 0 0 0 0 0 0 0 0 0 0
-0 -0 0 0 0 0 0 0 0 0 0 0 0 0 0 0 0 0 0 0 0 0 0 0 0 0 0 0 0 0 0 0 0 0 0 0 0 0 0 0 0 0 0 0 0 0 0 0 0 0 0 0 0 0
0 0 0 0 0 0 0 0 0 0 0 0 0 0 0 0 0 0 0 0 0 0 0 0 0 0 0 0 0 0 0 0 0 0 0 0 0 0 0 0 0 0 0 0 0 0 0 0 0 0 0 0 0 0
0 0 0 0 0 0 0 0 0 0 0 0 0 0 0 0 0 0 0 0 0 0 0 0 0 0 0 0 0 0 0 0 0 0 0 0 0 0 0 0 0 0 0 0 0 0 0 0 0 0 0 0 0 0
0 0 0 0 0 0 0 0 0 0 0 0 0 0 0 0 0 0 0 0 0 0 0 0 0 0 0 0 0 0 0 0 0 0 0 0 0 0 0 0 0 0 0 0 0 0 0 0 0 0 0 0 0 0
0 0 0 0 0 0 0 0 0 0 0 0 0 0 0 0 0 0 0 0 0 0 0 0 0 0 0 0 0 0 0 0 0 0 0 0 0 0 0 0 0 0 0 0 0 0 0 0 0 0 0 0 0 0
0 0 0 0 0 0 0 0 0 0 0 0 0 0 0 0 0 0 0 0 0 0 0 0 0 0 0 0 0 0 0 0 0 0 0 0 0 0 0 0 0 0 0 0 0 0 0 0 0 0 0 0 0 0
0 0 0 0 0 0 0 0 0 0 0 0 0 0 0 0 0 0 0 0 0 0 0 0 0 0 0 0 0 0 0 0 0 0 0 0 0 0 0 0 0 0 0 0 0 0 0 0 0 0 0 0 0 0
0 0 0 0 0 0 0 0 0 0 0 0 0 0 0 0 0 0 0 0 0 0 0 0 0 0 0 0 0 0 0 0 0 0 0 0 0 0 0 0 0 0 0 0 0 0 0 0 0 0 0 0 0 0
0 0 0 0 0 0 0 0 0 0 0 0 0 0 0 0 0 0 0 0 0 0 0 0 0 0 0 0 0 0 0 0 0 0 0 0 0 0 0 0 0 0 0 0 0 0 0 0 0 0 0 0 0 0
Wind_Speed_500mb
20 21 22 23 24 24 27 38 36 47 50 52 53 55 58 58 55 54 52 49 52 19 29 24 36 27 23 24 9 11 9 8 5 15 9 7 6 10 5 8 10 15 14 8 6 6 13 13 9 12 5 10 37 44
22 22 25 27 33 36 38 50 46 59 73 68 63 62 62 60 57 53 48 50 43 40 18 20 46 46 45 29 23 29 9 10 19 6 7 6 3 2 10 7 6 8 11 10 13 11 1 4 1 8 18 34 36 50
25 27 30 34 35 35 39 36 23 38 56 74 79 72 68 61 56 60 56 46 48 36 37 43 46 40 40 44 43 15 19 13 13 11 5 4 5 6 7 7 6 2 5 7 6 4 6 8 15 21 19 31 36 40
32 34 37 39 39 39 35 27 29 32 32 47 62 73 71 67 62 56 60 53 54 10 7 15 22 38 38 44 51 62 25 25 17 20 4 3 3 6 5 6 7 7 13 11 3 5 10 15 20 30 27 27 31 35
36 38 35 38 43 44 37 36 29 22 44 39 54 59 63 64 62 57 61 56 56 31 6 9 16 16 32 41 53 59 47 31 16 5 5 7 8 7 2 4 3 9 10 9 9 26 10 16 44 38 36 36 38 47
33 37 48 55 59 58 52 48 38 32 32 53 45 53 59 63 61 59 26 62 62 39 6 4 6 13 12 24 40 40 26 41 27 16 4 4 4 7 5 3 2 5 10 8 4 34 11 31 46 42 38 42 44 48
43 53 61 70 69 77 72 60 50 45 38 47 49 51 58 59 66 60 12 14 54 44 7 2 2 7 26 23 18 11 18 23 10 8 4 6 3 7 5 4 4 6 10 17 29 39 29 49 29 43 39 42 42 41
21 14 17 8 12 30 61 74 63 60 49 51 53 53 50 65 50 42 18 33 40 22 8 4 2 0 8 13 12 16 12 9 7 6 5 5 5 5 3 5 12 20 30 37 17 4 23 43 49 43 42 47 48 49
17 33 46 35 35 48 63 80 75 61 62 51 36 46 50 38 23 21 33 50 36 8 4 3 6 5 2 6 8 7 5 6 4 4 2 3 2 2 3 19 25 34 13 22 17 20 38 48 54 50 51 50 55 55
35 47 61 58 69 75 78 75 71 65 58 68 64 13 12 23 40 53 28 26 13 7 7 3 4 1 6 4 8 3 8 3 3 3 3 5 2 4 3 21 28 25 19 29 35 27 41 49 53 52 56 54 53 57
41 49 52 67 73 72 75 82 82 79 73 35 8 8 42 40 16 11 10 8 7 1 7 6 7 5 5 6 4 5 3 1 4 4 4 2 3 1 15 25 33 13 12 19 3 4 35 45 53 52 52 49 49 50
44 45 50 51 52 56 65 65 66 52 16 14 40 53 19 2 5 8 2 2 1 6 5 7 7 8 8 6 6 5 4 4 2 5 5 2 5 10 24 27 27 12 15 11 3 9 31 35 40 46 46 45 44 45
44 46 48 52 48 50 53 54 62 68 51 21 9 7 2 8 11 7 5 2 2 4 10 11 5 6 7 9 8 5 8 3 0 7 4 5 2 22 30 30 22 17 15 12 15 18 24 28 36 41 44 41 38 40
53 51 45 39 31 24 25 60 43 31 14 8 6 8 4 5 3 1 1 1 2 5 32 32 11 5 7 7 1 8 3 3 6 3 7 4 13 30 32 25 22 19 15 14 17 20 23 27 34 33 32 35 37 41
43 42 39 38 26 28 50 32 23 15 8 8 8 7 5 4 3 3 2 2 12 18 26 17 12 7 5 7 4 6 6 2 7 8 4 4 19 34 32 23 15 16 19 18 21 23 24 24 27 30 29 30 34 40
31 35 36 34 27 27 22 14 17 11 9 9 12 5 7 3 4 9 11 7 12 25 18 12 5 7 4 7 5 4 9 8 6 2 3 9 21 31 27 21 19 18 17 19 26 24 23 21 23 28 29 31 35 37
26 23 20 19 23 11 2 8 11 13 10 8 7 14 7 7 7 7 9 11 11 7 3 4 7 2 3 4 4 4 4 3 6 7 10 14 16 22 26 26 24 22 20 23 27 31 25 22 23 29 32 35 36 35
22 16 11 13 15 16 20 14 10 11 11 15 7 11 17 14 8 14 12 14 10 7 4 3 9 7 4 5 2 3 6 10 9 11 12 12 13 17 21 20 22 22 20 22 25 25 26 25 27 31 33 37 39 39
12 9 9 6 9 10 9 12 11 9 13 8 10 13 11 13 29 18 17 18 15 16 12 7 8 4 2 3 1 5 12 13 13 13 13 12 11 14 17 15 17 20 21 23 23 23 26 27 28 31 35 40 45 47
10 7 2 2 16 7 8 10 9 10 6 5 10 13 8 9 17 19 18 15 13 7 10 6 4 2 4 5 5 1 13 15 18 19 15 14 14 14 13 12 16 18 22 24 23 23 28 29 28 29 32 37 44 48
12 10 7 3 12 16 10 7 9 7 6 7 7 8 7 11 9 14 17 14 10 6 4 6 9 14 12 9 9 11 15 17 17 14 19 18 17 15 15 13 15 15 17 21 23 25 27 29 28 29 30 33 39 45
11 10 7 9 10 9 10 11 8 6 5 4 5 6 7 5 8 11 14 13 6 4 5 12 12 14 14 13 15 15 15 17 14 9 13 14 17 17 18 17 16 16 16 16 19 22 24 27 26 27 30 33 35 37
6 7 8 8 7 7 4 5 5 4 5 1 4 5 5 3 4 8 5 5 5 11 16 11 7 10 15 14 12 11 11 10 9 6 5 5 10 8 9 12 16 16 15 16 17 18 20 24 25 28 34 39 42 42
8 5 6 6 7 2 3 3 4 5 4 2 4 3 2 2 2 5 2 2 8 10 8 8 8 11 12 12 12 10 5 6 6 6 3 4 5 8 5 9 11 10 9 11 18 21 24 26 29 36 43 46 45 44
2 9 5 7 5 6 6 5 6 5 2 1 5 0 4 4 2 1 4 7 13 8 9 11 13 9 8 8 6 4 8 7 4 1 3 2 3 8 9 8 12 10 13 17 22 23 31 30 28 32 38 43 46 46
7 6 5 5 2 4 6 3 4 7 4 3 1 5 5 4 4 6 3 12 10 10 8 9 8 19 14 12 12 14 13 11 6 5 5 5 8 8 8 9 12 16 16 16 19 30 33 33 30 29 35 37 38 39
4 5 2 2 1 4 5 3 4 5 4 7 4 4 5 2 7 5 8 7 8 10 11 9 11 15 18 16 10 10 16 16 11 6 10 9 11 10 9 9 6 12 15 20 20 25 33 33 33 31 33 33 32 33
3 6 6 2 3 3 7 2 3 4 3 4 11 4 11 11 7 5 7 7 9 9 9 9 11 13 12 13 10 9 10 12 10 8 5 9 10 12 14 14 15 13 17 20 21 23 25 26 30 30 30 29 30 32
2 6 4 7 4 5 3 2 3 3 4 8 7 4 4 3 4 6 7 4 14 15 13 15 17 14 14 14 12 11 13 14 13 9 9 8 6 7 11 13 12 13 21 24 24 22 21 22 22 25 28 29 29 29
2 5 5 3 6 5 4 2 3 3 5 8 6 5 5 5 7 8 11 10 8 9 11 16 18 15 14 13 11 9 8 7 11 12 11 11 10 9 12 14 16 18 23 26 27 29 28 26 26 27 32 34 34 32
4 2 3 2 3 3 3 8 9 9 7 9 10 9 10 6 8 15 17 17 16 16 12 11 10 8 5 6 6 8 8 6 11 13 11 8 6 6 15 16 17 17 20 23 27 27 25 27 26 27 30 32 32 30
4 4 5 2 3 6 7 5 3 5 5 7 8 9 8 7 8 10 20 29 29 25 22 20 18 15 10 9 7 7 5 5 2 13 13 12 10 7 12 20 18 18 19 21 22 23 24 24 25 26 28 30 27 26
4 6 6 4 2 6 9 8 5 5 9 7 12 15 16 11 13 13 14 20 26 29 28 25 22 20 18 16 13 10 10 10 7 5 14 20 17 14 12 19 21 20 20 20 22 24 25 24 23 25 27 27 26 25
Wind_Direction_500mb
224 226 234 233 239 242 243 240 239 227 221 219 214 210 209 210 210 210 216 221 210 228 259 237 231 203 206 224 187 173 164 172 143 195 200 182 241 198 145 179 172 175 161 184 155 181 271 156 119 182 188 121 152 159
236 240 243 245 247 251 244 258 248 236 230 222 216 213 213 211 209 210 216 221 219 218 250 255 237 233 223 217 211 187 205 173 183 164 210 169 186 224 154 195 153 206 171 178 179 204 259 208 126 171 154 155 162 170
251 252 253 253 254 252 253 267 232 231 224 222 219 214 213 211 208 210 216 219 204 230 247 257 258 243 238 236 221 202 226 228 199 186 166 157 186 190 165 228 116 218 161 129 101 193 164 163 152 160 166 168 170 177
258 260 259 258 253 251 258 256 226 217 208 206 207 209 212 211 207 207 211 209 207 205 239 257 236 238 242 242 222 217 224 212 204 170 194 177 197 240 197 171 144 195 140 138 108 136 124 193 189 166 157 164 164 167
262 262 263 263 258 254 244 242 236 225 191 186 193 195 198 200 201 204 207 208 204 204 212 244 233 264 232 221 218 208 214 211 156 134 206 206 165 132 332 77 165 191 164 172 213 188 162 182 182 173 163 161 160 156
272 269 267 261 254 247 235 232 225 218 189 189 184 185 188 187 186 186 201 229 225 224 242 255 275 327 180 188 177 173 221 189 198 205 164 150 138 127 106 223 233 190 187 190 187 156 150 160 166 168 163 161 159 159
279 275 267 262 253 237 225 219 202 196 182 170 175 174 181 178 182 185 199 244 191 194 232 256 302 316 130 125 130 181 194 195 203 123 101 140 86 78 91 242 131 119 147 144 145 136 110 155 163 167 165 160 161 160
326 332 51 118 178 180 184 193 193 184 170 167 171 176 181 190 199 192 227 172 175 191 225 168 208 290 133 153 163 184 156 140 63 113 94 95 100 79 224 127 133 131 131 133 143 198 180 166 162 163 171 165 161 161
49 57 97 84 113 144 151 164 170 170 163 163 164 152 151 151 144 173 159 159 175 213 214 104 130 223 52 78 85 88 85 55 60 85 76 102 318 181 229 161 166 155 148 155 122 125 149 159 162 167 171 169 165 166
76 74 99 95 104 111 122 132 140 151 158 153 140 129 115 166 150 131 138 169 204 219 210 148 166 163 105 56 35 66 38 89 74 307 13 67 233 339 67 179 166 157 152 159 127 134 154 158 169 173 175 174 175 171
85 82 88 104 116 121 126 132 134 136 139 131 98 76 128 119 99 158 139 159 173 146 187 150 170 129 93 99 144 37 142 359 92 266 110 349 304 183 142 151 161 142 164 178 314 273 193 184 177 176 175 177 179 178
84 92 104 103 103 110 121 135 135 136 128 109 121 123 132 115 79 89 3 354 179 178 159 128 126 106 93 87 92 16 99 46 131 317 76 292 256 154 151 151 161 150 159 174 120 158 173 181 184 180 177 179 183 185
91 96 93 100 101 125 105 105 113 109 106 99 73 94 89 359 49 114 177 279 59 178 153 142 64 74 97 70 65 70 68 193 230 43 220 228 168 162 155 153 153 154 163 156 142 156 171 177 180 183 181 186 185 183
110 104 97 90 92 90 109 122 106 102 95 60 64 44 73 5 62 184 340 190 345 170 130 112 73 74 45 54 347 82 259 59 50 31 243 250 184 163 162 164 157 161 169 171 160 162 174 183 183 188 190 186 185 184
128 118 95 75 81 106 118 83 83 81 67 74 49 50 41 332 6 20 91 74 107 124 122 95 67 74 19 79 28 100 47 319 197 223 235 193 176 173 169 166 174 181 177 176 168 169 174 182 185 182 188 190 187 185
123 115 89 73 60 114 123 63 66 64 61 57 50 62 352 33 37 55 69 81 103 115 97 72 98 60 36 125 80 189 129 215 252 227 220 168 167 177 181 183 193 192 187 189 185 181 183 186 187 189 190 193 189 191
121 96 93 88 71 87 37 22 40 51 54 48 38 45 38 38 39 57 66 70 93 78 85 98 68 145 99 67 77 156 184 226 148 135 154 165 171 187 190 188 187 190 193 192 192 190 191 191 192 196 194 189 188 190
112 98 108 117 71 85 58 46 63 62 64 41 66 12 46 57 49 56 56 78 67 74 73 99 118 60 117 115 173 149 113 116 127 142 142 152 177 187 193 196 187 184 187 191 194 202 200 196 194 195 194 188 184 183
109 105 87 55 4 22 52 45 42 82 52 38 46 41 41 65 58 60 76 101 105 96 103 65 72 83 103 57 90 132 165 166 159 151 158 166 171 174 174 179 189 183 184 191 193 202 201 202 202 198 196 193 190 187
98 102 127 353 6 61 66 39 46 73 67 34 34 39 49 58 40 49 76 87 88 66 50 50 87 47 79 19 35 170 176 174 169 156 152 159 167 168 166 177 185 189 190 193 197 201 199 200 202 204 204 201 198 194
73 69 83 63 45 58 73 58 63 69 82 74 65 52 47 61 30 27 27 26 63 47 95 122 118 114 95 72 91 128 146 159 165 182 176 166 169 179 185 185 189 200 210 210 209 206 208 210 210 206 205 203 199 198
22 34 67 60 63 64 62 48 80 89 73 79 63 58 49 34 13 12 359 47 67 52 104 127 138 131 108 100 96 95 115 137 142 122 167 178 182 198 210 216 215 214 215 220 221 220 215 210 210 206 199 195 192 186
17 28 49 50 75 59 98 41 74 57 94 258 101 55 19 33 8 2 58 65 99 124 113 119 131 164 149 131 128 118 124 132 142 122 104 133 171 188 198 200 203 209 213 214 212 213 208 201 197 194 185 182 178 177
31 55 47 55 53 173 104 73 92 104 105 71 88 124 69 36 29 43 128 102 128 145 167 169 163 130 127 138 155 150 161 162 150 130 108 71 127 143 149 170 178 185 196 204 205 197 194 190 185 182 182 178 177 183
39 13 35 355 58 65 51 19 359 59 151 187 89 300 175 206 84 39 202 172 172 178 200 215 214 208 225 238 225 184 168 164 195 106 26 130 151 155 146 173 190 203 211 207 193 194 181 180 180 184 187 186 183 185
79 12 74 187 286 114 185 119 198 188 134 76 185 149 178 64 68 245 218 176 171 197 218 225 235 207 205 204 204 211 203 201 215 299 272 265 235 237 216 216 220 220 219 204 205 190 184 187 186 183 186 186 189 193
80 279 92 57 309 129 50 68 109 102 124 163 204 134 74 110 245 249 147 179 220 234 226 213 208 208 215 220 223 219 219 218 219 254 263 243 217 215 222 230 233 230 217 207 196 197 193 192 192 192 192 195 201 204
106 163 142 198 67 56 135 77 108 171 221 168 129 169 175 195 222 167 183 211 207 174 159 168 176 183 190 191 193 198 219 231 256 273 257 200 203 220 231 231 225 214 196 191 191 185 192 201 202 200 198 197 198 201
119 136 129 24 48 51 67 134 224 184 168 188 156 219 222 179 195 196 215 231 168 159 164 168 160 163 172 181 192 212 230 239 235 228 215 213 215 221 220 220 216 200 183 177 182 188 191 196 200 206 207 205 202 204
135 159 104 110 116 239 206 247 256 275 237 210 205 176 203 221 224 224 224 241 225 172 168 175 176 179 188 197 215 232 259 209 199 214 223 233 237 222 207 201 194 186 183 181 186 191 196 201 203 203 206 205 202 203
80 12 83 122 227 169 226 269 266 267 235 221 220 233 216 232 243 245 233 225 206 193 195 198 210 206 216 236 271 272 277 281 224 209 205 204 173 177 184 182 187 189 190 193 195 198 201 201 199 200 199 199 201 204
219 254 139 242 272 236 267 251 256 265 235 223 225 206 186 194 241 245 226 219 220 215 215 219 223 230 233 243 266 282 321 313 273 200 192 197 209 193 184 182 182 183 183 185 189 194 192 197 198 199 200 199 201 202
214 206 214 214 210 223 211 208 232 262 231 238 214 204 209 221 241 238 232 224 222 216 220 224 228 231 234 235 238 236 235 245 286 251 240 225 213 198 192 189 188 188 185 182 183 185 187 189 194 194 193 195 198 201
Wind_Speed_850mb
20 21 22 23 24 24 27 38 36 47 50 52 53 55 58 58 55 54 52 49 52 19 29 24 36 27 23 24 9 11 9 8 5 15 9 7 6 10 5 8 10 15 14 8 6 6 13 13 9 12 5 10 37 44
22 22 25 27 33 36 38 50 46 59 73 68 63 62 62 60 57 53 48 50 43 40 18 20 46 46 45 29 23 29 9 10 19 6 7 6 3 2 10 7 6 8 11 10 13 11 1 4 1 8 18 34 36 50
25 27 30 34 35 35 39 36 23 38 56 74 79 72 68 61 56 60 56 46 48 36 37 43 46 40 40 44 43 15 19 13 13 11 5 4 5 6 7 7 6 2 5 7 6 4 6 8 15 21 19 31 36 40
32 34 37 39 39 39 35 27 29 32 32 47 62 73 71 67 62 56 60 53 54 10 7 15 22 38 38 44 51 62 25 25 17 20 4 3 3 6 5 6 7 7 13 11 3 5 10 15 20 30 27 27 31 35
36 38 35 38 43 44 37 36 29 22 44 39 54 59 63 64 62 57 61 56 56 31 6 9 16 16 32 41 53 59 47 31 16 5 5 7 8 7 2 4 3 9 10 9 9 26 10 16 44 38 36 36 38 47
33 37 48 55 59 58 52 48 38 32 32 53 45 53 59 63 61 59 26 62 62 39 6 4 6 13 12 24 40 40 26 41 27 16 4 4 4 7 5 3 2 5 10 8 4 34 11 31 46 42 38 42 44 48
43 53 61 70 69 77 72 60 50 45 38 47 49 51 58 59 66 60 12 14 54 44 7 2 2 7 26 23 18 11 18 23 10 8 4 6 3 7 5 4 4 6 10 17 29 39 29 49 29 43 39 42 42 41
21 14 17 8 12 30 61 74 63 60 49 51 53 53 50 65 50 42 18 33 40 22 8 4 2 0 8 13 12 16 12 9 7 6 5 5 5 5 3 5 12 20 30 37 17 4 23 43 49 43 42 47 48 49
17 33 46 35 35 48 63 80 75 61 62 51 36 46 50 38 23 21 33 50 36 8 4 3 6 5 2 6 8 7 5 6 4 4 2 3 2 2 3 19 25 34 13 22 17 20 38 48 54 50 51 50 55 55
35 47 61 58 69 75 78 75 71 65 58 68 64 13 12 23 40 53 28 26 13 7 7 3 4 1 6 4 8 3 8 3 3 3 3 5 2 4 3 21 28 25 19 29 35 27 41 49 53 52 56 54 53 57
41 49 52 67 73 72 75 82 82 79 73 35 8 8 42 40 16 11 10 8 7 1 7 6 7 5 5 6 4 5 3 1 4 4 4 2 3 1 15 25 33 13 12 19 3 4 35 45 53 52 52 49 49 50
44 45 50 51 52 56 65 65 66 52 16 14 40 53 19 2 5 8 2 2 1 6 5 7 7 8 8 6 6 5 4 4 2 5 5 2 5 10 24 27 27 12 15 11 3 9 31 35 40 46 46 45 44 45
44 46 48 52 48 50 53 54 62 68 51 21 9 7 2 8 11 7 5 2 2 4 10 11 5 6 7 9 8 5 8 3 0 7 4 5 2 22 30 30 22 17 15 12 15 18 24 28 36 41 44 41 38 40
53 51 45 39 31 24 25 60 43 31 14 8 6 8 4 5 3 1 1 1 2 5 32 32 11 5 7 7 1 8 3 3 6 3 7 4 13 30 32 25 22 19 15 14 17 20 23 27 34 33 32 35 37 41
43 42 39 38 26 28 50 32 23 15 8 8 8 7 5 4 3 3 2 2 12 18 26 17 12 7 5 7 4 6 6 2 7 8 4 4 19 34 32 23 15 16 19 18 21 23 24 24 27 30 29 30 34 40
31 35 36 34 27 27 22 14 17 11 9 9 12 5 7 3 4 9 11 7 12 25 18 12 5 7 4 7 5 4 9 8 6 2 3 9 21 31 27 21 19 18 17 19 26 24 23 21 23 28 29 31 35 37
26 23 20 19 23 11 2 8 11 13 10 8 7 14 7 7 7 7 9 11 11 7 3 4 7 2 3 4 4 4 4 3 6 7 10 14 16 22 26 26 24 22 20 23 27 31 25 22 23 29 32 35 36 35
22 16 11 13 15 16 20 14 10 11 11 15 7 11 17 14 8 14 12 14 10 7 4 3 9 7 4 5 2 3 6 10 9 11 12 12 13 17 21 20 22 22 20 22 25 25 26 25 27 31 33 37 39 39
12 9 9 6 9 10 9 12 11 9 13 8 10 13 11 13 29 18 17 18 15 16 12 7 8 4 2 3 1 5 12 13 13 13 13 12 11 14 17 15 17 20 21 23 23 23 26 27 28 31 35 40 45 47
10 7 2 2 16 7 8 10 9 10 6 5 10 13 8 9 17 19 18 15 13 7 10 6 4 2 4 5 5 1 13 15 18 19 15 14 14 14 13 12 16 18 22 24 23 23 28 29 28 29 32 37 44 48
12 10 7 3 12 16 10 7 9 7 6 7 7 8 7 11 9 14 17 14 10 6 4 6 9 14 12 9 9 11 15 17 17 14 19 18 17 15 15 13 15 15 17 21 23 25 27 29 28 29 30 33 39 45
11 10 7 9 10 9 10 11 8 6 5 4 5 6 7 5 8 11 14 13 6 4 5 12 12 14 14 13 15 15 15 17 14 9 13 14 17 17 18 17 16 16 16 16 19 22 24 27 26 27 30 33 35 37
6 7 8 8 7 7 4 5 5 4 5 1 4 5 5 3 4 8 5 5 5 11 16 11 7 10 15 14 12 11 11 10 9 6 5 5 10 8 9 12 16 16 15 16 17 18 20 24 25 28 34 39 42 42
8 5 6 6 7 2 3 3 4 5 4 2 4 3 2 2 2 5 2 2 8 10 8 8 8 11 12 12 12 10 5 6 6 6 3 4 5 8 5 9 11 10 9 11 18 21 24 26 29 36 43 46 45 44
2 9 5 7 5 6 6 5 6 5 2 1 5 0 4 4 2 1 4 7 13 8 9 11 13 9 8 8 6 4 8 7 4 1 3 2 3 8 9 8 12 10 13 17 22 23 31 30 28 32 38 43 46 46
7 6 5 5 2 4 6 3 4 7 4 3 1 5 5 4 4 6 3 12 10 10 8 9 8 19 14 12 12 14 13 11 6 5 5 5 8 8 8 9 12 16 16 16 19 30 33 33 30 29 35 37 38 39
4 5 2 2 1 4 5 3 4 5 4 7 4 4 5 2 7 5 8 7 8 10 11 9 11 15 18 16 10 10 16 16 11 6 10 9 11 10 9 9 6 12 15 20 20 25 33 33 33 31 33 33 32 33
3 6 6 2 3 3 7 2 3 4 3 4 11 4 11 11 7 5 7 7 9 9 9 9 11 13 12 13 10 9 10 12 10 8 5 9 10 12 14 14 15 13 17 20 21 23 25 26 30 30 30 29 30 32
2 6 4 7 4 5 3 2 3 3 4 8 7 4 4 3 4 6 7 4 14 15 13 15 17 14 14 14 12 11 13 14 13 9 9 8 6 7 11 13 12 13 21 24 24 22 21 22 22 25 28 29 29 29
2 5 5 3 6 5 4 2 3 3 5 8 6 5 5 5 7 8 11 10 8 9 11 16 18 15 14 13 11 9 8 7 11 12 11 11 10 9 12 14 16 18 23 26 27 29 28 26 26 27 32 34 34 32
4 2 3 2 3 3 3 8 9 9 7 9 10 9 10 6 8 15 17 17 16 16 12 11 10 8 5 6 6 8 8 6 11 13 11 8 6 6 15 16 17 17 20 23 27 27 25 27 26 27 30 32 32 30
4 4 5 2 3 6 7 5 3 5 5 7 8 9 8 7 8 10 20 29 29 25 22 20 18 15 10 9 7 7 5 5 2 13 13 12 10 7 12 20 18 18 19 21 22 23 24 24 25 26 28 30 27 26
4 6 6 4 2 6 9 8 5 5 9 7 12 15 16 11 13 13 14 20 26 29 28 25 22 20 18 16 13 10 10 10 7 5 14 20 17 14 12 19 21 20 20 20 22 24 25 24 23 25 27 27 26 25
Wind_Direction_850mb
224 226 234 233 239 242 243 240 239 227 221 219 214 210 209 210 210 210 216 221 210 228 259 237 231 203 206 224 187 173 164 172 143 195 200 182 241 198 145 179 172 175 161 184 155 181 271 156 119 182 188 121 152 159
236 240 243 245 247 251 244 258 248 236 230 222 216 213 213 211 209 210 216 221 219 218 250 255 237 233 223 217 211 187 205 173 183 164 210 169 186 224 154 195 153 206 171 178 179 204 259 208 126 171 154 155 162 170
251 252 253 253 254 252 253 267 232 231 224 222 219 214 213 211 208 210 216 219 204 230 247 257 258 243 238 236 221 202 226 228 199 186 166 157 186 190 165 228 116 218 161 129 101 193 164 163 152 160 166 168 170 177
258 260 259 258 253 251 258 256 226 217 208 206 207 209 212 211 207 207 211 209 207 205 239 257 236 238 242 242 222 217 224 212 204 170 194 177 197 240 197 171 144 195 140 138 108 136 124 193 189 166 157 164 164 167
262 262 263 263 258 254 244 242 236 225 191 186 193 195 198 200 201 204 207 208 204 204 212 244 233 264 232 221 218 208 214 211 156 134 206 206 165 132 332 77 165 191 164 172 213 188 162 182 182 173 163 161 160 156
272 269 267 261 254 247 235 232 225 218 189 189 184 185 188 187 186 186 201 229 225 224 242 255 275 327 180 188 177 173 221 189 198 205 164 150 138 127 106 223 233 190 187 190 187 156 150 160 166 168 163 161 159 159
279 275 267 262 253 237 225 219 202 196 182 170 175 174 181 178 182 185 199 244 191 194 232 256 302 316 130 125 130 181 194 195 203 123 101 140 86 78 91 242 131 119 147 144 145 136 110 155 163 167 165 160 161 160
326 332 51 118 178 180 184 193 193 184 170 167 171 176 181 190 199 192 227 172 175 191 225 168 208 290 133 153 163 184 156 140 63 113 94 95 100 79 224 127 133 131 131 133 143 198 180 166 162 163 171 165 161 161
49 57 97 84 113 144 151 164 170 170 163 163 164 152 151 151 144 173 159 159 175 213 214 104 130 223 52 78 85 88 85 55 60 85 76 102 318 181 229 161 166 155 148 155 122 125 149 159 162 167 171 169 165 166
76 74 99 95 104 111 122 132 140 151 158 153 140 129 115 166 150 131 138 169 204 219 210 148 166 163 105 56 35 66 38 89 74 307 13 67 233 339 67 179 166 157 152 159 127 134 154 158 169 173 175 174 175 171
85 82 88 104 116 121 126 132 134 136 139 131 98 76 128 119 99 158 139 159 173 146 187 150 170 129 93 99 144 37 142 359 92 266 110 349 304 183 142 151 161 142 164 178 314 273 193 184 177 176 175 177 179 178
84 92 104 103 103 110 121 135 135 136 128 109 121 123 132 115 79 89 3 354 179 178 159 128 126 106 93 87 92 16 99 46 131 317 76 292 256 154 151 151 161 150 159 174 120 158 173 181 184 180 177 179 183 185
91 96 93 100 101 125 105 105 113 109 106 99 73 94 89 359 49 114 177 279 59 178 153 142 64 74 97 70 65 70 68 193 230 43 220 228 168 162 155 153 153 154 163 156 142 156 171 177 180 183 181 186 185 183
110 104 97 90 92 90 109 122 106 102 95 60 64 44 73 5 62 184 340 190 345 170 130 112 73 74 45 54 347 82 259 59 50 31 243 250 184 163 162 164 157 161 169 171 160 162 174 183 183 188 190 186 185 184
128 118 95 75 81 106 118 83 83 81 67 74 49 50 41 332 6 20 91 74 107 124 122 95 67 74 19 79 28 100 47 319 197 223 235 193 176 173 169 166 174 181 177 176 168 169 174 182 185 182 188 190 187 185
123 115 89 73 60 114 123 63 66 64 61 57 50 62 352 33 37 55 69 81 103 115 97 72 98 60 36 125 80 189 129 215 252 227 220 168 167 177 181 183 193 192 187 189 185 181 183 186 187 189 190 193 189 191
121 96 93 88 71 87 37 22 40 51 54 48 38 45 38 38 39 57 66 70 93 78 85 98 68 145 99 67 77 156 184 226 148 135 154 165 171 187 190 188 187 190 193 192 192 190 191 191 192 196 194 189 188 190
112 98 108 117 71 85 58 46 63 62 64 41 66 12 46 57 49 56 56 78 67 74 73 99 118 60 117 115 173 149 113 116 127 142 142 152 177 187 193 196 187 184 187 191 194 202 200 196 194 195 194 188 184 183
109 105 87 55 4 22 52 45 42 82 52 38 46 41 41 65 58 60 76 101 105 96 103 65 72 83 103 57 90 132 165 166 159 151 158 166 171 174 174 179 189 183 184 191 193 202 201 202 202 198 196 193 190 187
98 102 127 353 6 61 66 39 46 73 67 34 34 39 49 58 40 49 76 87 88 66 50 50 87 47 79 19 35 170 176 174 169 156 152 159 167 168 166 177 185 189 190 193 197 201 199 200 202 204 204 201 198 194
73 69 83 63 45 58 73 58 63 69 82 74 65 52 47 61 30 27 27 26 63 47 95 122 118 114 95 72 91 128 146 159 165 182 176 166 169 179 185 185 189 200 210 210 209 206 208 210 210 206 205 203 199 198
22 34 67 60 63 64 62 48 80 89 73 79 63 58 49 34 13 12 359 47 67 52 104 127 138 131 108 100 96 95 115 137 142 122 167 178 182 198 210 216 215 214 215 220 221 220 215 210 210 206 199 195 192 186
17 28 49 50 75 59 98 41 74 57 94 258 101 55 19 33 8 2 58 65 99 124 113 119 131 164 149 131 128 118 124 132 142 122 104 133 171 188 198 200 203 209 213 214 212 213 208 201 197 194 185 182 178 177
31 55 47 55 53 173 104 73 92 104 105 71 88 124 69 36 29 43 128 102 128 145 167 169 163 130 127 138 155 150 161 162 150 130 108 71 127 143 149 170 178 185 196 204 205 197 194 190 185 182 182 178 177 183
39 13 35 355 58 65 51 19 359 59 151 187 89 300 175 206 84 39 202 172 172 178 200 215 214 208 225 238 225 184 168 164 195 106 26 130 151 155 146 173 190 203 211 207 193 194 181 180 180 184 187 186 183 185
79 12 74 187 286 114 185 119 198 188 134 76 185 149 178 64 68 245 218 176 171 197 218 225 235 207 205 204 204 211 203 201 215 299 272 265 235 237 216 216 220 220 219 204 205 190 184 187 186 183 186 186 189 193
80 279 92 57 309 129 50 68 109 102 124 163 204 134 74 110 245 249 147 179 220 234 226 213 208 208 215 220 223 219 219 218 219 254 263 243 217 215 222 230 233 230 217 207 196 197 193 192 192 192 192 195 201 204
106 163 142 198 67 56 135 77 108 171 221 168 129 169 175 195 222 167 183 211 207 174 159 168 176 183 190 191 193 198 219 231 256 273 257 200 203 220 231 231 225 214 196 191 191 185 192 201 202 200 198 197 198 201
119 136 129 24 48 51 67 134 224 184 168 188 156 219 222 179 195 196 215 231 168 159 164 168 160 163 172 181 192 212 230 239 235 228 215 213 215 221 220 220 216 200 183 177 182 188 191 196 200 206 207 205 202 204
135 159 104 110 116 239 206 247 256 275 237 210 205 176 203 221 224 224 224 241 225 172 168 175 176 179 188 197 215 232 259 209 199 214 223 233 237 222 207 201 194 186 183 181 186 191 196 201 203 203 206 205 202 203
80 12 83 122 227 169 226 269 266 267 235 221 220 233 216 232 243 245 233 225 206 193 195 198 210 206 216 236 271 272 277 281 224 209 205 204 173 177 184 182 187 189 190 193 195 198 201 201 199 200 199 199 201 204
219 254 139 242 272 236 267 251 256 265 235 223 225 206 186 194 241 245 226 219 220 215 215 219 223 230 233 243 266 282 321 313 273 200 192 197 209 193 184 182 182 183 183 185 189 194 192 197 198 199 200 199 201 202
214 206 214 214 210 223 211 208 232 262 231 238 214 204 209 221 241 238 232 224 222 216 220 224 228 231 234 235 238 236 235 245 286 251 240 225 213 198 192 189 188 188 185 182 183 185 187 189 194 194 193 195 198 201